Location: Palam�s
(41.8500°N, 3.1330°E)
Time: 20:06:22
(UTC+02:00)

ISS - Visible Passes

Search period start: 06 July 2020 00:00
Search period end: 16 July 2020 00:00
Orbit: 417 x 421 km, 51.6° (Epoch: 06 July)

Date Brightness Start Highest point End Pass type
(mag) Time Alt. Az. Time Alt. Az. Time Alt. Az.
06 Jul -2.9 03:23:56 46° NNW 03:23:56 46° NNW 03:27:09 10° NE visible
06 Jul -1.1 04:58:59 10° NW 05:01:18 17° N 05:03:37 10° NE visible
07 Jul -1.9 02:37:47 29° NE 02:37:47 29° NE 02:39:36 10° NE visible
07 Jul -1.3 04:10:54 10° WNW 04:13:28 20° NNW 04:16:02 10° NE visible
08 Jul -0.9 01:51:36 12° ENE 01:51:36 12° ENE 01:51:57 10° ENE visible
08 Jul -1.7 03:24:31 20° NW 03:25:39 24° NNW 03:28:29 10° NE visible
08 Jul -0.8 05:01:14 10° NW 05:03:19 15° N 05:05:25 10° NE visible
09 Jul -2.0 02:38:14 31° N 02:38:14 31° N 02:40:57 10° NE visible
09 Jul -0.8 04:13:17 10° NW 04:15:26 16° N 04:17:35 10° NE visible
10 Jul -1.5 01:51:53 23° NE 01:51:53 23° NE 01:53:24 10° NE visible
10 Jul -0.9 03:25:14 10° NW 03:27:33 17° N 03:29:52 10° NE visible
10 Jul -0.8 05:02:56 10° NW 05:05:18 18° N 05:07:39 10° NE visible
11 Jul -0.9 01:05:26 13° NE 01:05:26 13° NE 01:05:48 10° NE visible
11 Jul -1.2 02:38:19 16° NW 02:39:40 20° NNW 02:42:14 10° NE visible
11 Jul -0.7 04:15:14 10° NW 04:17:24 16° N 04:19:34 10° NE visible
12 Jul -1.5 01:51:38 24° NNW 01:51:49 24° NNW 01:54:39 10° NE visible
12 Jul -0.6 03:27:23 10° NW 03:29:29 15° N 03:31:35 10° NE visible
12 Jul -1.3 05:04:15 10° NW 05:07:08 25° NNE 05:10:00 10° E visible
13 Jul -1.9 01:04:26 31° N 01:04:26 31° N 01:07:05 10° NE visible
13 Jul -0.6 02:39:24 10° NW 02:41:33 16° N 02:43:42 10° NE visible
13 Jul -1.0 04:16:39 10° NW 04:19:17 20° NNE 04:21:53 10° ENE visible
13 Jul -2.6 22:36:56 10° S 22:39:37 22° SE 22:42:18 10° E visible
14 Jul -2.8 00:12:57 10° WSW 00:16:13 47° NNW 00:19:29 10° NE visible
14 Jul -0.8 01:51:17 10° NW 01:53:37 17° N 01:55:57 10° NE visible
14 Jul -0.7 03:29:00 10° NW 03:31:22 17° N 03:33:44 10° NE visible
14 Jul -2.8 05:05:28 10° NW 05:08:45 50° NNE 05:12:01 10° ESE visible
14 Jul -1.9 21:50:25 10° SSE 21:52:06 13° SE 21:53:47 10° E visible
14 Jul -3.6 23:25:07 10° WSW 23:28:28 75° NW 23:31:51 10° NE visible
15 Jul -1.0 01:03:08 10° WNW 01:05:42 20° NNW 01:08:16 10° NE visible
15 Jul -0.6 02:41:15 10° NW 02:43:26 16° N 02:45:36 10° NE visible
15 Jul -2.0 04:17:50 10° NW 04:20:58 34° NNE 04:24:04 10° E visible
15 Jul -3.9 22:37:27 10° SW 22:40:47 65° SE 22:44:07 10° ENE visible
